CW1844 Weather Reports


time (UTC)temp
F
wind
direction
speed
knots
gust
knots
rain 1hr
in
rain 24hr
in
rain mn
in
humidity
%
barometer
mb
20260503211932 61 207 0.0 0.0 0.00 0.00 0.00 61 1012.7
20260503210910 61 360 0.0 0.0 0.00 0.00 0.00 62 1012.6
20260503205909 61 35 0.0 0.0 0.00 0.00 0.00 63 1012.6
20260503203933 62 192 0.0 0.0 0.00 0.00 0.00 62 1012.8
20260503202915 62 155 0.0 0.0 0.00 0.00 0.00 63 1012.8
20260503201934 61 165 0.0 0.0 0.00 0.00 0.00 63 1012.9
20260503200910 60 152 0.0 0.0 0.00 0.00 0.00 65 1012.9
20260503195910 60 160 0.0 0.0 0.00 0.00 0.00 66 1012.9
20260503194909 59 56 0.0 0.0 0.00 0.00 0.00 66 1012.8
20260503193918 59 88 0.0 0.0 0.00 0.00 0.00 66 1012.9
20260503192909 59 110 0.0 0.0 0.00 0.00 0.00 68 1012.9
20260503191909 58 130 0.0 0.0 0.00 0.00 0.00 69 1012.9
20260503185909 58 68 0.0 0.0 0.00 0.00 0.00 71 1012.8
20260503184909 59 70 0.0 0.0 0.00 0.00 0.00 71 1012.9
20260503182909 58 111 0.0 0.0 0.00 0.00 0.00 71 1012.9
20260503181917 58 30 0.0 0.0 0.00 0.00 0.00 75 1012.9
20260503175909 57 279 0.0 0.0 0.00 0.00 0.00 77 1012.8
20260503174909 56 312 0.0 0.0 0.00 0.00 0.00 78 1012.9
20260503173918 56 77 0.0 0.0 0.00 0.00 0.00 79 1012.9
20260503172909 55 340 0.0 0.0 0.00 0.00 0.00 81 1012.8
20260503171917 55 355 0.0 0.0 0.00 0.00 0.00 81 1012.8
20260503170909 54 202 0.0 0.0 0.00 0.00 0.00 82 1012.9
20260503150917 52 171 0.0 0.0 0.00 0.00 0.00 90 1012.4
20260503130932 51 348 0.0 0.0 0.00 0.00 0.00 90 1011.1
20260503080918 52 5 0.0 0.0 0.00 0.00 0.00 85 1012.0
20260503072942 52 5 0.0 0.0 0.00 0.00 0.00 85 1011.8
20260503070946 52 5 0.0 0.0 0.00 0.00 0.00 85 1011.8
20260503054912 53 327 0.0 0.0 0.00 0.00 0.00 83 1011.9
20260503053917 53 355 0.0 0.0 0.00 0.00 0.00 83 1012.0
20260503051924 53 5 0.0 0.0 0.00 0.00 0.00 83 1012.1
20260503050914 53 5 0.0 0.0 0.00 0.00 0.00 83 1012.1
20260503045907 53 5 0.0 0.0 0.00 0.00 0.00 83 1012.1
20260503044908 53 9 0.0 0.0 0.00 0.00 0.00 83 1012.0
20260503043935 53 40 0.0 0.0 0.00 0.00 0.00 82 1011.9
20260503042936 53 40 0.0 0.0 0.00 0.00 0.00 82 1011.8
20260503041907 53 40 0.0 0.0 0.00 0.00 0.00 82 1011.7
20260503040910 54 40 0.0 0.0 0.00 0.00 0.00 82 1011.6
20260503035914 54 53 0.0 0.0 0.00 0.00 0.00 82 1011.5
20260503034921 54 53 0.0 0.0 0.00 0.00 0.00 81 1011.3
20260503033940 54 9 0.0 0.0 0.00 0.00 0.00 81 1011.2
20260503032952 54 9 0.0 0.0 0.00 0.00 0.00 81 1011.1
20260503031907 54 13 0.0 0.0 0.00 0.00 0.00 81 1011.0
20260503025906 55 348 0.0 0.0 0.00 0.00 0.00 80 1010.9
20260503024916 55 340 0.0 0.0 0.00 0.00 0.00 80 1010.8
20260503022940 56 350 0.0 0.0 0.00 0.00 0.00 78 1010.5
20260503021907 57 360 0.0 0.0 0.00 0.00 0.00 78 1010.5
20260503020907 57 61 0.0 0.0 0.00 0.00 0.00 76 1010.5
20260503015906 58 24 0.0 0.0 0.00 0.00 0.00 75 1010.5
20260503014915 59 348 0.0 0.0 0.00 0.00 0.00 75 1010.6
20260503013929 59 340 0.0 0.0 0.00 0.00 0.00 74 1010.7
20260503012953 60 345 0.0 0.0 0.00 0.00 0.00 73 1010.7
20260503011906 61 324 0.0 0.0 0.00 0.00 0.00 72 1010.7
20260503005917 62 355 0.0 0.0 0.00 0.00 0.00 71 1010.6
20260503004918 62 355 0.0 0.0 0.00 0.00 0.00 69 1010.6
20260503002938 63 281 0.0 0.0 0.00 0.00 0.00 67 1010.7
20260502235947 65 312 0.0 0.0 0.00 0.00 0.00 65 1010.7
20260502234938 66 219 0.0 0.0 0.00 0.00 0.00 64 1010.7
20260502233926 66 28 0.0 0.0 0.00 0.00 0.00 64 1010.7
20260502231906 67 295 0.0 0.0 0.00 0.00 0.00 65 1010.9
20260502230911 68 30 0.0 0.0 0.00 0.00 0.00 61 1010.9
20260502225912 69 22 0.0 0.0 0.00 0.00 0.00 61 1011.1
20260502224920 69 273 0.0 0.0 0.00 0.00 0.00 61 1011.3
20260502222913 70 344 0.0 0.0 0.00 0.00 0.00 57 1011.6
20260502220914 72 300 0.0 0.0 0.00 0.00 0.00 57 1012.0
20260502215920 71 161 0.0 0.0 0.00 0.00 0.00 57 1012.2
20260502214911 71 146 0.0 0.0 0.00 0.00 0.00 57 1012.3
20260502213939 70 164 0.0 0.0 0.00 0.00 0.00 58 1012.5
20260502212914 69 98 0.0 0.0 0.00 0.00 0.00 58 1012.5